Showing default

ALOUETTE 1 (S-27), 424

Orbit data source: Space-Track

ALOUETTE 1 (S-27), 424 is a payload satellite owned by DRTE (CA) in LEO that was launched on Sat, 29 Sep 1962 UTC via a THOR AGENA B launch vehicle from the Air Force Western Test Range (AFWTR). Payload-class satellites include a variety of spacecraft equipped with specific instruments for various scientific and technological missions. These include communications satellites like Starlink; space stations such as the ISS; scientific satellites like the Hubble; Earth observation satellites from companies like Planet Labs, Umbra, and HawkEye 360; GPS; miniature CubeSats for education and research; and military/defense satellites.

Loading next visibility...
Identifier
424, 1962-049A
Orbit
LEO
Country
Flag of CACA
Related business
Manufacturer
DEHAVT/RCAV
Mission
Spacecraft
Bus & Motor
ALOUETTE, Unknown motor
Mass
145 kg wet, 145 kg dry
Launch date (UTC)
1962-09-29 (63 years ago)
Launch vehicle
THOR AGENA B
Launch site
Air Force Western Test Range (AFWTR)
Object type
Payload
Rocket body
Debris
Shape & HBR
Unknown
Radar Cross Section
Large (>1 m²)

Expand to show TLE details & history
Last TLE update: 13 hours ago

TLE from 13 hours ago
0 ALOUETTE 1 (S-27)
1 00424U 62049A   25310.95737345  .00000106  00000-0  11093-3 0  9999
2 00424  80.4641 116.2997 0023454  90.7648 269.6185 13.69543589150693
Epoch: 2025-11-06T22:58Z
TLE epoch observation values (Epoch: 2025-11-06T22:58:37.066Z)
Latitude
-0.00003°
Longitude
85.23702°
Altitude
1,004.184 km
Speed
7.35 km/s
True Right ascension
07h 45m 11s
True Declination
0° 00' 00"
Sunlit
Object was in daylight at epoch
Visualization orbit readout
Latitude
Unknown
Longitude
Unknown
Altitude
Unknown
Speed
Unknown
Apparent Right ascension
Unknown
Apparent Declination
Unknown
Sunlit
N/A
Visualization observer readout
Local Sidereal Time
08:25:52
Azimuth
Unknown
Elevation
Unknown
Doppler factor
Unknown
Orbital elements
Apogee altitude
1,015.778 km
Perigee altitude
981.176 km
Semi-major axis
7,376.614 km
Eccentricity
0.00235
Inclination
80.4641°
RAAN
116.2997°
Arg. of periapsis
90.7648°
True anomaly
269.34975°
Mean anomaly
269.6185°
Eccentric anomaly
269.48412°
Mean motion
3.42577 °/min
Orbital period
105.09 mins
BSTAR
0.00011093
Loading maneuver chart data...
Computing Atmospheric mass density...
Loading historical data...
Loading historical data...
Loading historical data...
Loading historical data...
Loading historical data...
Loading historical data...
Loading historical data...
Other satellites on launch #49 in the year 1962 (1962-09-29 UTC)

Documentation

Showing up to 5 results
|